Cut Bank, MT

12:55 PM MDT on July 25, 2016 (GMT -0600)
Cut Bank Municipal

Weather History for KCTB - April, 2014

Change the Weather History Date:

Wednesday, April 9, 2014

  Actual Average Record
Temperature  
Mean Temperature 45 °F 39 °F  
Max Temperature 57 °F 51 °F 76 °F (1996)
Min Temperature 32 °F 27 °F 7 °F (1997)
Degree Days  
Heating Degree Days 20 26  
Month to date heating degree days 208 243  
Since 1 July heating degree days 7636 7341  
Cooling Degree Days 0 0  
Month to date cooling degree days 0 0  
Year to date cooling degree days 0 0  
Moisture  
Dew Point 27 °F    
Average Humidity 52    
Maximum Humidity 82    
Minimum Humidity 22    
Precipitation  
Precipitation T in 0.02 in 0.36 in (1957)
Month to date precipitation 0.02 0.17  
Year to date precipitation 1.70 1.08  
Snow  
Snow 0.00 in - - ()
Snow Depth 0.00 in    
Sea Level Pressure  
Sea Level Pressure 29.88 in    
Wind  
Wind Speed 18 mph (NW)    
Max Wind Speed 49 mph    
Max Gust Speed 62 mph    
Visibility 8 miles    
Events Snow    
T = Trace of Precipitation, MM = Missing Value Source: NWS Daily Summary

Daily Weather History Graph

Daily Weather History Graph

Search for Another Location

Airport or City:

Trip Planner

Search our weather history database for the weather conditions in past years. The results will help you decide how hot, cold, wet, or windy it might be!

Date:

Astronomy

Apr. 09, 2014 Rise Set
Actual Time 6:50 AM MDT 8:12 PM MDT
Civil Twilight 6:18 AM MDT 8:44 PM MDT
Nautical Twilight 5:39 AM MDT 9:24 PM MDT
Astronomical Twilight 4:56 AM MDT 10:06 PM MDT
Moon 2:40 PM MDT (4/9) 4:07 AM MDT (4/9)
Length of Visible Light 14h 26m
Length of Day
13h 21m
Waxing Gibbous, 72% of the Moon is Illuminated
Apr 9
Waxing Gibbous
Apr 15
Full
Apr 22
Last Quarter
Apr 29
New
May 6
First Quarter

Hourly Weather History & Observations

Time (MDT) Temp. Windchill Dew Point Humidity Pressure Visibility Wind Dir Wind Speed Gust Speed Precip Events Conditions
6:56 AM 36.0 °F 23.2 °F 30.0 °F 79% 29.77 in 10.0 mi North 28.8 mph 40.3 mph N/A   Overcast
7:03 AM 35.1 °F 21.6 °F 30.0 °F 82% 29.78 in 10.0 mi North 31.1 mph 40.3 mph N/A   Overcast
7:15 AM 35.1 °F 22.2 °F 30.9 °F 85% 29.80 in 2.5 mi North 27.6 mph 34.5 mph 0.00 in Snow Light Snow
7:25 AM 34.0 °F 21.3 °F 30.9 °F 89% 29.81 in 1.5 mi North 25.3 mph 35.7 mph 0.00 in Snow Light Snow
7:28 AM 34.0 °F 20.8 °F 30.9 °F 89% 29.81 in 2.5 mi North 27.6 mph 35.7 mph 0.00 in Snow Light Snow
7:36 AM 34.0 °F 20.8 °F 32.0 °F 92% 29.82 in 9.0 mi North 27.6 mph 34.5 mph 0.00 in   Overcast
7:56 AM 34.0 °F 22.4 °F 30.0 °F 85% 29.85 in 10.0 mi North 20.7 mph - 0.00 in Snow Light Snow
8:07 AM 34.0 °F 22.4 °F 30.0 °F 85% 29.85 in 9.0 mi North 20.7 mph - 0.00 in   Overcast
8:56 AM 36.0 °F 25.6 °F 30.0 °F 79% 29.88 in 10.0 mi North 18.4 mph - 0.00 in   Overcast
9:20 AM 36.0 °F 25.6 °F 28.9 °F 76% 29.88 in 10.0 mi North 18.4 mph - N/A   Overcast
9:54 AM 35.6 °F 27.1 °F 28.4 °F 75% 29.89 in 10.0 mi NNW 12.7 mph - N/A   Overcast
9:56 AM 35.1 °F 26.4 °F 30.0 °F 82% 29.90 in 10.0 mi NNW 12.7 mph - N/A   Overcast
10:07 AM 35.1 °F 25.5 °F 30.0 °F 82% 29.89 in 3.0 mi NNW 15.0 mph - 0.00 in Snow Light Snow
10:13 AM 35.1 °F 25.2 °F 30.0 °F 82% 29.90 in 1.8 mi North 16.1 mph - 0.00 in Snow Light Snow
10:50 AM 33.8 °F 24.3 °F 30.2 °F 87% 29.91 in 3.0 mi North 13.8 mph - 0.00 in Snow Light Snow
10:56 AM 35.1 °F 26.9 °F 30.9 °F 85% 29.92 in 4.0 mi NNW 11.5 mph - 0.00 in Snow Light Snow
11:08 AM 36.0 °F 28.0 °F 32.0 °F 86% 29.90 in 9.0 mi NNW 11.5 mph - 0.00 in   Overcast
11:51 AM 39.2 °F 33.6 °F 30.2 °F 70% 29.91 in 10.0 mi NNW 8.1 mph - 0.00 in   Mostly Cloudy
11:56 AM 39.0 °F 34.8 °F 30.0 °F 70% 29.91 in 10.0 mi North 5.8 mph - 0.00 in   Mostly Cloudy
12:12 PM 42.1 °F 36.6 °F 30.0 °F 62% 29.91 in 10.0 mi NNW 9.2 mph - N/A   Scattered Clouds
12:19 PM 41.0 °F 36.4 °F 28.0 °F 60% 29.90 in 10.0 mi West 6.9 mph 17.3 mph N/A   Mostly Cloudy
12:56 PM 42.1 °F 39.2 °F 28.9 °F 60% 29.90 in 10.0 mi West 4.6 mph - N/A   Mostly Cloudy
1:23 PM 44.1 °F 39.0 °F 30.0 °F 58% 29.89 in 10.0 mi SSW 9.2 mph - N/A   Scattered Clouds
1:56 PM 46.9 °F - 30.9 °F 54% 29.87 in 10.0 mi West 11.5 mph - N/A   Clear
2:56 PM 51.1 °F - 27.0 °F 39% 29.84 in 10.0 mi Variable 6.9 mph 17.3 mph N/A   Clear
3:56 PM 55.0 °F - 17.1 °F 23% 29.82 in 10.0 mi WNW 26.5 mph 34.5 mph N/A   Scattered Clouds
4:56 PM 54.0 °F - 16.0 °F 22% 29.83 in 10.0 mi West 21.9 mph 34.5 mph N/A   Partly Cloudy
5:56 PM 54.0 °F - 15.1 °F 22% 29.84 in 10.0 mi West 23.0 mph 34.5 mph N/A   Clear
6:56 PM 51.1 °F - 14.0 °F 23% 29.88 in 10.0 mi West 20.7 mph - N/A   Clear
7:56 PM 45.0 °F 40.1 °F 17.1 °F 33% 29.90 in 10.0 mi West 9.2 mph - N/A   Clear
8:56 PM 39.9 °F 33.9 °F 17.1 °F 40% 29.93 in 10.0 mi West 9.2 mph - N/A   Clear
9:56 PM 37.9 °F 31.5 °F 19.0 °F 47% 29.95 in 10.0 mi WNW 9.2 mph - N/A   Clear
10:56 PM 34.0 °F 27.2 °F 19.0 °F 54% 29.96 in 10.0 mi West 8.1 mph - N/A   Clear
11:56 PM 36.0 °F 28.0 °F 18.0 °F 48% 29.96 in 10.0 mi West 11.5 mph - N/A   Clear